| time (UTC) | temp F | wind direction | speed knots | gust knots | rain 1hr in | rain 24hr in | rain mn in | humidity % | barometer mb |
| 20260503224719 | 49 | 159 | 2.6 | 7.0 | 0.04 | 0.09 | 0.09 | 87 | 1005.4 |
| 20260503223716 | 49 | 210 | 2.6 | 7.0 | 0.03 | 0.08 | 0.08 | 88 | 1005.3 |
| 20260503222716 | 49 | 151 | 1.7 | 4.3 | 0.02 | 0.07 | 0.07 | 89 | 1005.6 |
| 20260503221716 | 49 | 157 | 1.7 | 3.5 | 0.02 | 0.07 | 0.07 | 88 | 1005.5 |
| 20260503220714 | 49 | 160 | 2.6 | 5.2 | 0.01 | 0.06 | 0.06 | 87 | 1005.6 |
| 20260503215714 | 49 | 165 | 2.6 | 6.1 | 0.00 | 0.05 | 0.05 | 87 | 1005.5 |
| 20260503214711 | 49 | 157 | 2.6 | 7.0 | 0.00 | 0.05 | 0.05 | 88 | 1005.5 |
| 20260503213711 | 48 | 148 | 2.6 | 6.1 | 0.00 | 0.05 | 0.05 | 89 | 1005.5 |
| 20260503213151 | 48 | 148 | 1.7 | 4.3 | 0.00 | 0.05 | 0.05 | 90 | 1005.4 |
| 20260503212146 | 48 | 198 | 2.6 | 6.1 | 0.00 | 0.05 | 0.05 | 90 | 1005.5 |
| 20260503210711 | 48 | 154 | 3.5 | 7.0 | 0.01 | 0.05 | 0.05 | 90 | 1005.5 |
| 20260503205711 | 47 | 192 | 2.6 | 5.2 | 0.02 | 0.05 | 0.05 | 90 | 1005.6 |
| 20260503204714 | 47 | 182 | 2.6 | 5.2 | 0.02 | 0.05 | 0.05 | 90 | 1005.7 |
| 20260503203712 | 47 | 188 | 2.6 | 5.2 | 0.02 | 0.05 | 0.05 | 90 | 1005.8 |
| 20260503202712 | 47 | 118 | 2.6 | 7.0 | 0.04 | 0.05 | 0.05 | 89 | 1005.9 |
| 20260503201712 | 47 | 171 | 2.6 | 5.2 | 0.04 | 0.05 | 0.05 | 88 | 1006.1 |
| 20260503200712 | 47 | 155 | 2.6 | 6.1 | 0.03 | 0.04 | 0.04 | 87 | 1006.1 |
| 20260503200148 | 47 | 187 | 2.6 | 5.2 | 0.02 | 0.03 | 0.03 | 86 | 1006.2 |
| 20260503194716 | 47 | 174 | 4.3 | 8.7 | 0.02 | 0.03 | 0.03 | 85 | 1006.3 |
| 20260503194216 | 48 | 192 | 5.2 | 11.3 | 0.03 | 0.03 | 0.03 | 82 | 1006.4 |
| 20260503192708 | 49 | 144 | 3.5 | 9.6 | 0.01 | 0.01 | 0.01 | 78 | 1006.6 |
| 20260503191707 | 51 | 147 | 3.5 | 11.3 | 0.01 | 0.01 | 0.01 | 74 | 1006.8 |
| 20260503191631 | 51 | 148 | 3.5 | 11.3 | 0.01 | 0.01 | 0.01 | 67 | 1007.0 |
| 20260503185708 | 52 | 184 | 0.9 | 7.0 | 0.01 | 0.01 | 0.01 | 67 | 1006.8 |
| 20260503184658 | 52 | 355 | 0.9 | 4.3 | 0.01 | 0.01 | 0.01 | 65 | 1006.8 |
| 20260503183657 | 53 | 194 | 1.7 | 6.1 | 0.00 | 0.00 | 0.00 | 62 | 1007.0 |
| 20260503182655 | 53 | 291 | 3.5 | 10.4 | 0.00 | 0.00 | 0.00 | 58 | 1007.2 |
| 20260503181656 | 54 | 191 | 3.5 | 10.4 | 0.00 | 0.00 | 0.00 | 52 | 1007.1 |
| 20260503180655 | 55 | 162 | 3.5 | 9.6 | 0.00 | 0.00 | 0.00 | 52 | 1007.1 |
| 20260503175656 | 55 | 200 | 2.6 | 7.8 | 0.00 | 0.00 | 0.00 | 50 | 1007.1 |
| 20260503174655 | 55 | 113 | 3.5 | 7.8 | 0.00 | 0.00 | 0.00 | 50 | 1007.1 |
| 20260503173654 | 55 | 207 | 2.6 | 7.8 | 0.00 | 0.00 | 0.00 | 51 | 1007.5 |
| 20260503172656 | 55 | 306 | 2.6 | 7.8 | 0.00 | 0.00 | 0.00 | 49 | 1007.3 |
| 20260503172143 | 56 | 178 | 4.3 | 11.3 | 0.00 | 0.00 | 0.00 | 48 | 1007.5 |
| 20260503170653 | 56 | 240 | 3.5 | 8.7 | 0.00 | 0.00 | 0.00 | 47 | 1007.4 |
| 20260503170143 | 56 | 169 | 4.3 | 11.3 | 0.00 | 0.00 | 0.00 | 47 | 1007.4 |
| 20260503150651 | 53 | 171 | 5.2 | 14.8 | 0.00 | 0.00 | 0.00 | 45 | 1008.6 |
| 20260503130648 | 44 | 150 | 3.5 | 8.7 | 0.00 | 0.00 | 0.00 | 66 | 1010.4 |
| 20260503110641 | 32 | 169 | 2.6 | 5.2 | 0.00 | 0.01 | 0.00 | 83 | 1011.0 |
| 20260503081632 | 30 | 184 | 1.7 | 2.6 | 0.00 | 0.01 | 0.00 | 85 | 1011.7 |
| 20260503080632 | 30 | 187 | 0.9 | 2.6 | 0.00 | 0.01 | 0.00 | 84 | 1011.6 |
| 20260503072628 | 30 | 200 | 1.7 | 2.6 | 0.00 | 0.01 | 0.00 | 83 | 1011.8 |
| 20260503071627 | 30 | 188 | 1.7 | 2.6 | 0.00 | 0.01 | 0.00 | 83 | 1011.8 |
| 20260503070626 | 30 | 173 | 1.7 | 2.6 | 0.00 | 0.01 | 0.00 | 84 | 1011.8 |
| 20260503054620 | 31 | 180 | 1.7 | 3.5 | 0.00 | 0.01 | 0.00 | 84 | 1012.4 |
| 20260503053621 | 31 | 167 | 1.7 | 2.6 | 0.00 | 0.01 | 0.00 | 85 | 1012.5 |
| 20260503052619 | 30 | 180 | 1.7 | 2.6 | 0.00 | 0.01 | 0.00 | 85 | 1012.6 |
| 20260503051619 | 30 | 182 | 0.9 | 2.6 | 0.00 | 0.01 | 0.00 | 86 | 1012.7 |
| 20260503050625 | 30 | 169 | 1.7 | 2.6 | 0.00 | 0.01 | 0.00 | 85 | 1012.8 |
| 20260503045617 | 30 | 162 | 1.7 | 3.5 | 0.00 | 0.01 | 0.00 | 85 | 1012.9 |
| 20260503044617 | 30 | 166 | 1.7 | 2.6 | 0.00 | 0.01 | 0.00 | 85 | 1012.9 |
| 20260503043613 | 30 | 183 | 1.7 | 3.5 | 0.00 | 0.01 | 0.00 | 85 | 1013.1 |
| 20260503042615 | 30 | 170 | 1.7 | 2.6 | 0.00 | 0.01 | 0.00 | 84 | 1013.1 |
| 20260503042524 | 31 | 167 | 1.7 | 3.5 | 0.00 | 0.01 | 0.00 | 84 | 1013.1 |
| 20260503041050 | 31 | 158 | 0.9 | 2.6 | 0.00 | 0.01 | 0.00 | 83 | 1013.1 |
| 20260503035614 | 31 | 151 | 0.9 | 1.7 | 0.00 | 0.01 | 0.01 | 82 | 1013.2 |
| 20260503034614 | 31 | 154 | 0.0 | 1.7 | 0.00 | 0.01 | 0.01 | 82 | 1013.3 |
| 20260503033615 | 31 | 132 | 0.0 | 1.7 | 0.00 | 0.01 | 0.01 | 80 | 1013.3 |
| 20260503032614 | 31 | 140 | 0.0 | 0.0 | 0.00 | 0.01 | 0.01 | 79 | 1013.4 |
| 20260503031614 | 31 | 165 | 0.0 | 0.0 | 0.00 | 0.01 | 0.01 | 78 | 1013.4 |
| 20260503031059 | 32 | 165 | 0.0 | 0.0 | 0.00 | 0.01 | 0.01 | 77 | 1013.5 |
| 20260503025612 | 32 | 165 | 0.0 | 0.0 | 0.00 | 0.01 | 0.01 | 76 | 1013.5 |
| 20260503025048 | 33 | 165 | 0.0 | 0.0 | 0.00 | 0.01 | 0.01 | 73 | 1013.6 |
| 20260503023609 | 33 | 165 | 0.0 | 0.0 | 0.00 | 0.01 | 0.01 | 73 | 1013.7 |
| 20260503022604 | 34 | 165 | 0.0 | 0.0 | 0.00 | 0.01 | 0.01 | 71 | 1013.7 |
| 20260503021603 | 35 | 165 | 0.0 | 0.0 | 0.00 | 0.01 | 0.01 | 71 | 1013.8 |
| 20260503020604 | 35 | 159 | 0.0 | 0.0 | 0.00 | 0.01 | 0.01 | 70 | 1013.7 |
| 20260503015603 | 35 | 159 | 0.9 | 1.7 | 0.00 | 0.01 | 0.01 | 70 | 1013.6 |
| 20260503015042 | 36 | 166 | 1.7 | 2.6 | 0.00 | 0.01 | 0.01 | 68 | 1013.5 |
| 20260503013601 | 37 | 172 | 0.0 | 2.6 | 0.00 | 0.01 | 0.01 | 67 | 1013.5 |
| 20260503012559 | 37 | 195 | 0.0 | 0.0 | 0.00 | 0.01 | 0.01 | 65 | 1013.6 |
| 20260503011558 | 38 | 195 | 0.0 | 0.0 | 0.00 | 0.01 | 0.01 | 62 | 1013.5 |
| 20260503010552 | 39 | 195 | 0.0 | 0.0 | 0.00 | 0.01 | 0.01 | 61 | 1013.5 |
| 20260503010034 | 40 | 191 | 0.0 | 0.0 | 0.00 | 0.01 | 0.01 | 58 | 1013.5 |
| 20260503004552 | 40 | 196 | 0.0 | 0.0 | 0.00 | 0.01 | 0.01 | 55 | 1013.4 |
| 20260503003551 | 41 | 143 | 0.9 | 1.7 | 0.00 | 0.01 | 0.01 | 52 | 1013.4 |
| 20260503002552 | 41 | 171 | 0.9 | 2.6 | 0.00 | 0.01 | 0.01 | 46 | 1013.5 |
| 20260503001552 | 42 | 210 | 0.9 | 2.6 | 0.00 | 0.01 | 0.01 | 44 | 1013.5 |
| 20260503000554 | 42 | 204 | 0.9 | 4.3 | 0.00 | 0.01 | 0.01 | 45 | 1013.4 |
| 20260502235549 | 42 | 282 | 0.9 | 5.2 | 0.00 | 0.01 | 0.01 | 43 | 1013.4 |
| 20260502234549 | 43 | 284 | 1.7 | 4.3 | 0.00 | 0.01 | 0.01 | 42 | 1013.4 |
| 20260502234030 | 44 | 269 | 2.6 | 5.2 | 0.00 | 0.01 | 0.01 | 40 | 1013.4 |
| 20260502232549 | 45 | 324 | 1.7 | 5.2 | 0.00 | 0.01 | 0.01 | 39 | 1013.5 |
| 20260502232037 | 46 | 96 | 1.7 | 5.2 | 0.00 | 0.01 | 0.01 | 39 | 1013.5 |
| 20260502230547 | 46 | 333 | 1.7 | 5.2 | 0.00 | 0.01 | 0.01 | 39 | 1013.5 |
| 20260502225548 | 46 | 253 | 1.7 | 6.1 | 0.00 | 0.01 | 0.01 | 39 | 1013.5 |